This demonstration page uses our WeatherBlox Daily Observations layout. Learn more.

Left ArrowRight Arrow

39.08367, -84.50855

Hourly Observations for March 20, 2015

Temp ( °F °C ) Dew Point ( °F °C ) Humidity (%) Winds ( mph kmh ) Pressure ( in mb ) Visibility ( mi km ) Precip ( " mm )
12:25 am 00:25 Cloudy 42 5.6 40 4.4 92 92 N N/A 30.09 1019 10 16.0934 N/A
12:53 am 00:53 Cloudy 42 5.6 40 4.4 92 92 NE 3 6 30.08 1019 10 16.0934 N/A
1:53 am 01:53 Cloudy 42 5.6 39 3.9 89 89 NE 5 7 30.06 1018 10 16.0934 N/A
2:53 am 02:53 Cloudy 42 5.6 40 4.4 92 92 N N/A 30.05 1018 10 16.0934 N/A
3:53 am 03:53 Cloudy 43 6.1 39 3.9 86 86 N N/A 30.04 1017 10 16.0934 N/A
4:53 am 04:53 Cloudy with Mist and Fog 41 5 38 3.3 89 89 N 6 9 30.05 1018 5 8.0467 N/A
5:53 am 05:53 Cloudy with Light Rain 41 5 39 3.9 93 93 N N/A 30.06 1018 6 9.65604 N/A
6:53 am 06:53 Cloudy with Light Rain 41 5 40 4.4 96 96 N 5 7 30.07 1018 4 6.43736 0.02 0.508
7:53 am 07:53 Cloudy with Mist and Fog 41 5 39 3.9 93 93 N 3 6 30.08 1019 6 9.65604 N/A
8:53 am 08:53 Cloudy with Mist and Fog 41 5 39 3.9 93 93 N 3 6 30.09 1019 5 8.0467 N/A
9:53 am 09:53 Cloudy with Mist and Fog 42 5.6 39 3.9 89 89 N 6 9 30.11 1020 6 9.65604 N/A
10:53 am 10:53 Cloudy with Mist and Fog 43 6.1 39 3.9 86 86 N 6 9 30.14 1021 5 8.0467 N/A
11:53 am 11:53 Cloudy 44 6.7 39 3.9 83 83 N 5 7 30.14 1021 8 12.87472 N/A
12:39 pm 12:39 Cloudy 45 7.2 39 3.9 80 80 WNW 5 7 30.15 1021 8 12.87472 N/A
12:53 pm 12:53 Cloudy 46 7.8 39 3.9 77 77 NNW 7 11 30.14 1021 9 14.48406 N/A
1:53 pm 13:53 Cloudy 46 7.8 39 3.9 77 77 W 7 11 30.14 1021 10 16.0934 N/A
2:53 pm 14:53 Cloudy 48 8.9 39 3.9 71 71 NNW 6 9 30.12 1020 10 16.0934 N/A
3:53 pm 15:53 Cloudy 49 9.4 39 3.9 69 69 NW 6 9 30.11 1020 10 16.0934 N/A
4:53 pm 16:53 Cloudy 49 9.4 38 3.3 66 66 NNW 3 6 30.11 1020 10 16.0934 N/A
5:53 pm 17:53 Cloudy 48 8.9 39 3.9 71 71 WNW 3 6 30.11 1020 10 16.0934 N/A
6:28 pm 18:28 Cloudy 48 9 39 4 71 71 N N/A 30.12 1020 10 16.0934 N/A
6:41 pm 18:41 Cloudy 49 9.4 38 3.3 66 66 N N/A 30.12 1020 10 16.0934 N/A
6:53 pm 18:53 Cloudy 48 8.9 39 3.9 71 71 N N/A 30.12 1020 10 16.0934 N/A
7:53 pm 19:53 Cloudy 47 8.3 40 4.4 77 77 WSW 3 6 30.14 1021 10 16.0934 N/A
8:53 pm 20:53 Cloudy 47 8.3 40 4.4 77 77 WSW 5 7 30.14 1021 10 16.0934 N/A
9:21 pm 21:21 Cloudy 47 8.3 40 4.4 77 77 WSW 3 6 30.15 1021 10 16.0934 N/A
9:31 pm 21:31 Cloudy 47 8.3 40 4.4 77 77 WSW 5 7 30.15 1021 10 16.0934 N/A
9:53 pm 21:53 Cloudy 47 8.3 40 4.4 77 77 SSW 3 6 30.15 1021 10 16.0934 N/A
10:53 pm 22:53 Cloudy 45 7.2 41 5 86 86 N N/A 30.15 1021 10 16.0934 N/A
11:53 pm 23:53 Cloudy 45 7.2 41 5 86 86 N N/A 30.14 1021 10 16.0934 N/A

Powered by AerisWeather